Simultaneous Nadir Overpasses (SNOs) Predictions

Prediction of SNOs between GOES-14 and AQUA Satellite Orbit:

Table of predicted SNOs for the next 14.0 days since TLE Epoch: 5/29/2021
Index Date Time (GOES-14) GOES-14 Lat,Lon AQUA Lat,Lon Distance(km) Time Diff (sec)
1 05/30/2021 08:23:20 0.07,-104.13 -0.46,-101.71 275.42 80
2 05/30/2021 20:42:05 -0.05,-104.33 -0.60,-106.91 293.96 80
3 06/01/2021 20:32:34 -0.06,-104.33 0.03,-103.96 42.30 80
4 06/03/2021 20:20:23 -0.07,-104.33 0.67,-101.00 378.98 80
5 06/04/2021 08:38:58 0.04,-104.13 0.48,-106.15 230.03 80
6 06/06/2021 08:29:27 0.04,-104.14 -0.16,-103.20 106.90 80
7 06/06/2021 20:48:12 -0.02,-104.35 -0.88,-108.40 460.71 80
8 06/08/2021 08:17:16 0.04,-104.14 -0.80,-100.24 443.83 80
9 06/08/2021 20:36:01 -0.02,-104.35 -0.24,-105.45 124.01 80
10 06/10/2021 20:26:29 -0.02,-104.36 0.35,-102.48 212.54 80
11 06/11/2021 08:45:05 -0.01,-104.14 0.74,-107.64 397.94 80
